EW6246 Weather Reports


Display with metric or nautical units.
time (UTC)temp
F
wind
direction
speed
MPH
gust
MPH
rain 1hr
in
rain 24hr
in
rain mn
in
humidity
%
barometer
mb
20260505221701 74 259 4.0 7.0 0.00 0.00 0.00 84 1018.4
20260505221158 75 294 2.0 3.0 0.00 0.00 0.00 83 1018.2
20260505220655 75 241 2.0 6.0 0.00 0.00 0.00 82 1018.1
20260505220152 75 302 2.0 2.0 0.00 0.00 0.00 83 1018.3
20260505215650 75 258 4.0 6.0 0.00 0.00 0.00 82 1018.1
20260505215148 76 291 1.0 1.0 0.00 0.00 0.00 83 1018.1
20260505214646 76 299 2.0 3.0 0.00 0.00 0.00 82 1018.1
20260505214143 77 257 1.0 1.0 0.00 0.00 0.00 80 1018.1
20260505213640 77 278 1.0 2.0 0.00 0.00 0.00 80 1018.0
20260505213137 78 234 1.0 2.0 0.00 0.00 0.00 79 1018.1
20260505212632 77 260 2.0 3.0 0.00 0.00 0.00 80 1018.2
20260505212130 78 297 4.0 5.0 0.00 0.00 0.00 79 1018.1
20260505211627 78 301 3.0 3.0 0.00 0.00 0.00 79 1018.1
20260505211124 78 256 5.0 7.0 0.00 0.00 0.00 77 1017.9
20260505210621 78 267 2.0 3.0 0.00 0.00 0.00 79 1017.8
20260505210118 79 287 1.0 2.0 0.00 0.00 0.00 77 1017.7
20260505205615 79 286 1.0 2.0 0.00 0.00 0.00 77 1017.9
20260505205113 79 274 2.0 5.0 0.00 0.00 0.00 77 1017.8
20260505204610 79 322 4.0 5.0 0.00 0.00 0.00 77 1017.8
20260505204107 79 293 3.0 5.0 0.00 0.00 0.00 78 1017.7
20260505203604 79 274 2.0 2.0 0.00 0.00 0.00 77 1017.6
20260505203101 79 275 2.0 2.0 0.00 0.00 0.00 78 1017.9
20260505202556 79 258 4.0 6.0 0.00 0.00 0.00 78 1018.0
20260505202053 79 299 3.0 6.0 0.00 0.00 0.00 77 1017.8
20260505201550 79 293 3.0 3.0 0.00 0.00 0.00 77 1017.7
20260505201048 79 288 3.0 5.0 0.00 0.00 0.00 78 1017.9
20260505200545 80 269 6.0 9.0 0.00 0.00 0.00 78 1017.8
20260505200042 80 283 3.0 3.0 0.00 0.00 0.00 77 1017.8
20260505195538 80 298 4.0 8.0 0.00 0.00 0.00 77 1018.0
20260505195036 81 314 4.0 5.0 0.00 0.00 0.00 76 1017.9
20260505194533 80 223 1.0 2.0 0.00 0.00 0.00 77 1017.9
20260505194028 81 258 3.0 5.0 0.00 0.00 0.00 77 1018.0
20260505193525 81 61 3.0 3.0 0.00 0.00 0.00 75 1018.4
20260505193023 82 76 2.0 2.0 0.00 0.00 0.00 77 1018.0
20260505192521 82 30 0.0 1.0 0.00 0.00 0.00 76 1018.1
20260505192018 81 71 2.0 2.0 0.00 0.00 0.00 78 1018.4
20260505191516 82 178 3.0 5.0 0.00 0.00 0.00 74 1018.2
20260505191014 82 285 1.0 1.0 0.00 0.00 0.00 73 1018.3
20260505190508 82 43 2.0 3.0 0.00 0.00 0.00 74 1018.2
20260505190005 82 280 2.0 3.0 0.00 0.00 0.00 75 1018.4
20260505185502 80 341 3.0 5.0 0.00 0.00 0.00 76 1018.5
20260505184958 80 16 2.0 2.0 0.00 0.00 0.00 78 1018.5
20260505184455 78 302 2.0 2.0 0.00 0.00 0.00 81 1018.5
20260505183951 80 309 2.0 2.0 0.00 0.00 0.00 78 1018.6
20260505183449 82 19 3.0 3.0 0.00 0.00 0.00 75 1018.7
20260505182945 81 307 0.0 1.0 0.00 0.00 0.00 76 1018.4
20260505182442 78 294 1.0 1.0 0.00 0.00 0.00 80 1018.9
20260505181938 79 250 3.0 5.0 0.00 0.00 0.00 78 1018.9
20260505181436 82 34 5.0 6.0 0.00 0.00 0.00 75 1018.5
20260505180933 82 24 1.0 1.0 0.00 0.00 0.00 74 1019.0
20260505180429 81 271 2.0 2.0 0.00 0.00 0.00 74 1018.7
20260505175926 80 287 3.0 3.0 0.00 0.00 0.00 78 1019.0
20260505175422 80 275 1.0 1.0 0.00 0.00 0.00 79 1019.2
20260505174918 78 313 2.0 3.0 0.00 0.00 0.00 81 1019.2
20260505174416 77 270 1.0 1.0 0.00 0.00 0.00 85 1019.3
20260505173912 77 277 1.0 2.0 0.00 0.00 0.00 85 1019.5
20260505173408 79 287 1.0 2.0 0.00 0.00 0.00 80 1019.4
20260505172905 81 358 2.0 2.0 0.00 0.00 0.00 79 1019.6
20260505172403 80 330 1.0 1.0 0.00 0.00 0.00 78 1019.5
20260505171903 79 311 1.0 1.0 0.00 0.00 0.00 81 1019.6
20260505171400 78 271 1.0 2.0 0.00 0.00 0.00 83 1019.7
20260505170856 81 306 1.0 1.0 0.00 0.00 0.00 77 1019.6
20260505170354 79 264 1.0 2.0 0.00 0.00 0.00 80 1019.7
20260505165848 78 258 1.0 2.0 0.00 0.00 0.00 81 1019.4
20260505165344 77 258 0.0 0.0 0.00 0.00 0.00 83 1019.6
20260505164840 78 258 1.0 1.0 0.00 0.00 0.00 82 1019.8
20260505164337 78 258 2.0 3.0 0.00 0.00 0.00 81 1019.6
20260505163835 82 77 2.0 5.0 0.00 0.00 0.00 76 1019.6
20260505163334 81 50 1.0 2.0 0.00 0.00 0.00 75 1019.9
20260505162832 80 313 1.0 1.0 0.00 0.00 0.00 76 1019.9
20260505162328 80 278 3.0 5.0 0.00 0.00 0.00 74 1019.8
20260505161825 78 258 1.0 2.0 0.00 0.00 0.00 82 1019.7
20260505161322 79 300 2.0 2.0 0.00 0.00 0.00 80 1019.7
20260505160819 78 258 1.0 1.0 0.00 0.00 0.00 83 1019.8
20260505160317 79 266 3.0 5.0 0.00 0.00 0.00 80 1019.6
20260505153256 80 257 3.0 3.0 0.00 0.00 0.00 72 1019.4
20260505152753 80 302 0.0 1.0 0.00 0.00 0.00 73 1019.5
20260505152249 79 258 1.0 2.0 0.00 0.00 0.00 76 1019.8
20260505151744 80 340 1.0 2.0 0.00 0.00 0.00 75 1019.5
20260505151241 81 258 4.0 5.0 0.00 0.00 0.00 71 1019.4
20260505150738 81 237 5.0 6.0 0.00 0.00 0.00 72 1019.3
20260505150235 80 225 3.0 3.0 0.00 0.00 0.00 75 1019.4
20260505140200 78 338 2.0 2.0 0.00 0.00 0.00 75 1019.6
20260505130124 75 230 2.0 3.0 0.00 0.00 0.00 78 1018.9
20260505124613 75 336 2.0 2.0 0.00 0.00 0.00 79 1019.0
20260505124110 75 276 1.0 2.0 0.00 0.00 0.00 80 1019.1
20260505123606 74 340 2.0 2.0 0.00 0.00 0.00 83 1018.7
20260505123103 74 289 1.0 1.0 0.00 0.00 0.00 81 1019.0
20260505122559 73 302 0.0 0.0 0.00 0.00 0.00 86 1018.9
20260505122056 73 284 0.0 0.0 0.00 0.00 0.00 87 1018.7
20260505121553 72 267 0.0 0.0 0.00 0.00 0.00 88 1018.6
20260505121050 72 251 1.0 1.0 0.00 0.00 0.00 88 1018.7
20260505120546 72 289 0.0 1.0 0.00 0.00 0.00 89 1018.6
20260505120042 72 222 1.0 1.0 0.00 0.00 0.00 88 1018.6
20260505115536 72 297 0.0 0.0 0.00 0.00 0.00 88 1018.6
20260505115034 72 294 0.0 0.0 0.00 0.00 0.00 88 1018.6
20260505114531 71 304 0.0 0.0 0.00 0.00 0.00 90 1018.5
20260505114027 72 273 1.0 1.0 0.00 0.00 0.00 88 1018.5
20260505113524 71 304 0.0 0.0 0.00 0.00 0.00 89 1018.5
20260505113020 70 304 0.0 0.0 0.00 0.00 0.00 90 1018.6
20260505112516 70 306 0.0 0.0 0.00 0.00 0.00 90 1018.4
20260505112014 70 306 0.0 0.0 0.00 0.00 0.00 91 1018.4
20260505111508 69 291 0.0 0.0 0.00 0.00 0.00 90 1018.7
20260505111004 69 301 0.0 0.0 0.00 0.00 0.00 91 1018.7
20260505110501 69 306 0.0 0.0 0.00 0.00 0.00 92 1018.5
20260505101927 66 309 0.0 0.0 0.00 0.00 0.00 95 1017.9
20260505101426 66 332 1.0 1.0 0.00 0.00 0.00 95 1017.8
20260505100922 66 311 1.0 1.0 0.00 0.00 0.00 96 1017.6
20260505100420 66 307 0.0 0.0 0.00 0.00 0.00 96 1017.4
20260505095915 65 314 0.0 0.0 0.00 0.00 0.00 97 1017.7
20260505095413 65 310 0.0 0.0 0.00 0.00 0.00 97 1017.7
20260505094908 66 310 0.0 1.0 0.00 0.00 0.00 97 1017.6
20260505094406 65 267 1.0 1.0 0.00 0.00 0.00 97 1017.6
20260505093901 65 310 0.0 0.0 0.00 0.00 0.00 97 1017.6
20260505093359 65 300 0.0 0.0 0.00 0.00 0.00 97 1017.7
20260505092856 66 293 0.0 0.0 0.00 0.00 0.00 97 1017.5
20260505092354 65 299 0.0 0.0 0.00 0.00 0.00 97 1017.4
20260505091851 65 300 0.0 0.0 0.00 0.00 0.00 97 1017.6
20260505091349 66 308 0.0 0.0 0.00 0.00 0.00 97 1017.3
20260505090847 66 302 0.0 0.0 0.00 0.00 0.00 97 1017.6
20260505090345 66 300 0.0 0.0 0.00 0.00 0.00 97 1017.7
20260505085841 66 294 0.0 0.0 0.00 0.00 0.00 97 1017.7
20260505085339 66 308 0.0 0.0 0.00 0.00 0.00 97 1017.4
20260505084837 66 308 0.0 0.0 0.00 0.00 0.00 97 1017.7
20260505084335 66 308 0.0 0.0 0.00 0.00 0.00 97 1017.6
20260505083832 66 308 0.0 0.0 0.00 0.00 0.00 97 1017.7
20260505083330 66 308 0.0 1.0 0.00 0.00 0.00 97 1017.5
20260505082826 66 309 1.0 1.0 0.00 0.00 0.00 97 1017.7
20260505082322 66 308 0.0 0.0 0.00 0.00 0.00 97 1017.5
20260505081819 66 308 0.0 0.0 0.00 0.00 0.00 97 1017.6
20260505081316 66 308 1.0 1.0 0.00 0.00 0.00 97 1017.5
20260505080812 66 290 0.0 0.0 0.00 0.00 0.00 96 1017.8
20260505080308 66 319 0.0 1.0 0.00 0.00 0.00 96 1017.7
20260505075804 66 300 0.0 1.0 0.00 0.00 0.00 96 1017.6
20260505075304 66 308 0.0 0.0 0.00 0.00 0.00 96 1017.6
20260505074758 67 311 0.0 0.0 0.00 0.00 0.00 96 1017.3
20260505074255 66 299 0.0 0.0 0.00 0.00 0.00 96 1017.4
20260505073753 67 292 0.0 0.0 0.00 0.00 0.00 95 1017.2
20260505073251 67 308 0.0 0.0 0.00 0.00 0.00 95 1017.3
20260505072747 67 272 1.0 1.0 0.00 0.00 0.00 95 1017.5
20260505072243 67 293 0.0 1.0 0.00 0.00 0.00 96 1017.4
20260505071739 67 321 1.0 1.0 0.00 0.00 0.00 96 1017.3
20260505071236 67 291 0.0 0.0 0.00 0.00 0.00 96 1017.4
20260505070734 67 305 0.0 0.0 0.00 0.00 0.00 96 1017.3
20260505070230 67 295 0.0 0.0 0.00 0.00 0.00 96 1017.3
20260505065726 67 305 0.0 0.0 0.00 0.00 0.00 96 1017.3
20260505065223 67 299 0.0 0.0 0.00 0.00 0.00 96 1017.7
20260505064720 67 304 0.0 0.0 0.00 0.00 0.00 95 1017.5
20260505064218 67 281 0.0 0.0 0.00 0.00 0.00 95 1017.5
20260505063715 67 299 0.0 0.0 0.00 0.00 0.00 96 1017.5
20260505063211 67 305 0.0 0.0 0.00 0.00 0.00 96 1017.5
20260505062707 67 305 0.0 0.0 0.00 0.00 0.00 95 1017.5
20260505062205 67 295 0.0 0.0 0.00 0.00 0.00 95 1017.5
20260505061701 67 312 1.0 1.0 0.00 0.00 0.00 95 1017.6
20260505061200 67 308 0.0 0.0 0.00 0.00 0.00 95 1017.6
20260505060657 67 313 1.0 1.0 0.00 0.00 0.00 95 1017.5
20260505060154 67 284 1.0 1.0 0.00 0.00 0.00 95 1017.6
20260505055649 67 299 0.0 1.0 0.00 0.00 0.00 95 1017.9
20260505055146 68 306 0.0 0.0 0.00 0.00 0.00 95 1017.8
20260505054643 68 295 0.0 1.0 0.00 0.00 0.00 94 1017.9
20260505054141 68 319 1.0 1.0 0.00 0.00 0.00 94 1018.0
20260505053639 68 289 0.0 0.0 0.00 0.00 0.00 94 1018.0
20260505053135 68 289 0.0 0.0 0.00 0.00 0.00 94 1017.8
20260505052632 68 304 0.0 0.0 0.00 0.00 0.00 94 1018.0
20260505052129 68 292 0.0 1.0 0.00 0.00 0.00 94 1018.3
20260505051626 68 289 0.0 0.0 0.00 0.00 0.00 94 1017.9
20260505051124 68 298 1.0 1.0 0.00 0.00 0.00 94 1018.2
20260505050621 68 297 0.0 0.0 0.00 0.00 0.00 93 1018.1
20260505050120 68 294 0.0 0.0 0.00 0.00 0.00 93 1018.4
20260505041549 69 304 1.0 1.0 0.00 0.00 0.00 92 1019.0
20260505041047 69 287 0.0 0.0 0.00 0.00 0.00 91 1019.0
20260505040544 68 287 0.0 1.0 0.00 0.00 0.00 91 1018.7
20260505040041 68 287 0.0 0.0 0.00 0.00 0.00 92 1019.0
20260505035537 68 287 0.0 1.0 0.00 0.00 0.00 92 1018.9
20260505035034 68 287 0.0 0.0 0.00 0.00 0.00 92 1019.1
20260505034530 68 287 0.0 0.0 0.00 0.00 0.00 91 1019.2
20260505034027 68 287 0.0 0.0 0.00 0.00 0.00 91 1019.1
20260505033524 68 307 1.0 1.0 0.00 0.00 0.00 92 1019.3
20260505033022 68 308 0.0 0.0 0.00 0.00 0.00 93 1019.2
20260505032520 68 329 0.0 0.0 0.00 0.00 0.00 93 1019.4
20260505032016 68 304 0.0 0.0 0.00 0.00 0.00 93 1019.3
20260505031514 68 304 0.0 0.0 0.00 0.00 0.00 93 1019.3
20260505031010 67 304 0.0 0.0 0.00 0.00 0.00 93 1019.4
20260505030507 67 305 0.0 0.0 0.00 0.00 0.00 93 1019.5
20260505030002 68 308 0.0 0.0 0.00 0.00 0.00 93 1019.4
20260505025459 67 314 0.0 0.0 0.00 0.00 0.00 93 1019.6
20260505024958 67 311 0.0 0.0 0.00 0.00 0.00 93 1019.4
20260505024454 67 311 1.0 1.0 0.00 0.00 0.00 93 1019.3
20260505023951 67 311 0.0 0.0 0.00 0.00 0.00 94 1019.5
20260505023448 67 310 0.0 0.0 0.00 0.00 0.00 93 1019.6
20260505022946 67 310 0.0 1.0 0.00 0.00 0.00 93 1019.3
20260505022443 67 311 0.0 0.0 0.00 0.00 0.00 93 1019.2
20260505021941 67 311 0.0 0.0 0.00 0.00 0.00 93 1019.2
20260505021437 67 311 0.0 0.0 0.00 0.00 0.00 93 1019.2
20260505020932 67 311 0.0 0.0 0.00 0.00 0.00 93 1019.1
20260505020428 67 309 0.0 0.0 0.00 0.00 0.00 93 1019.2
20260505015925 67 304 0.0 0.0 0.00 0.00 0.00 93 1019.1
20260505015422 68 307 0.0 0.0 0.00 0.00 0.00 93 1019.0
20260505014920 68 309 0.0 0.0 0.00 0.00 0.00 93 1018.9
20260505014416 68 302 0.0 0.0 0.00 0.00 0.00 93 1019.0
20260505013913 68 302 0.0 0.0 0.00 0.00 0.00 93 1019.0
20260505013410 68 306 0.0 0.0 0.00 0.00 0.00 93 1018.9
20260505012908 69 308 0.0 1.0 0.00 0.00 0.00 93 1018.7
20260505012406 69 300 0.0 0.0 0.00 0.00 0.00 92 1018.9
20260505011902 69 300 1.0 1.0 0.00 0.00 0.00 91 1018.6
20260505011359 69 334 1.0 1.0 0.00 0.00 0.00 91 1018.2
20260505010855 69 311 0.0 0.0 0.00 0.00 0.00 92 1018.3
20260505010351 69 299 0.0 0.0 0.00 0.00 0.00 91 1018.1
20260505005847 69 309 0.0 0.0 0.00 0.00 0.00 91 1018.2
20260505005344 70 306 0.0 0.0 0.00 0.00 0.00 91 1018.1
20260505004842 70 315 0.0 0.0 0.00 0.00 0.00 91 1018.1
20260505004338 70 304 0.0 1.0 0.00 0.00 0.00 91 1018.1
20260505003835 71 306 0.0 0.0 0.00 0.00 0.00 88 1018.2
20260505003332 72 289 0.0 0.0 0.00 0.00 0.00 86 1018.2
20260505002828 72 287 1.0 1.0 0.00 0.00 0.00 85 1018.0
20260505002325 72 264 1.0 1.0 0.00 0.00 0.00 87 1018.2
20260505001824 72 285 0.0 0.0 0.00 0.00 0.00 87 1018.2
20260505001320 71 275 1.0 1.0 0.00 0.00 0.00 88 1018.2
20260505000818 72 289 0.0 0.0 0.00 0.00 0.00 88 1018.1
20260505000315 72 309 0.0 0.0 0.00 0.00 0.00 89 1018.2
20260504235812 72 295 0.0 0.0 0.00 0.00 0.00 88 1018.0
20260504235309 72 295 0.0 0.0 0.00 0.00 0.00 87 1018.1
20260504234805 72 19 2.0 2.0 0.00 0.00 0.00 88 1018.2
20260504234303 72 40 1.0 1.0 0.00 0.00 0.00 87 1018.0
20260504233759 72 316 1.0 1.0 0.00 0.00 0.00 88 1017.9
20260504233255 72 298 0.0 1.0 0.00 0.00 0.00 87 1018.0
20260504232752 73 311 0.0 0.0 0.00 0.00 0.00 88 1017.9
20260504232249 73 275 0.0 1.0 0.00 0.00 0.00 87 1018.1
20260504231746 73 87 1.0 1.0 0.00 0.00 0.00 87 1018.0
20260504231243 73 88 0.0 1.0 0.00 0.00 0.00 86 1017.9
20260504230738 73 84 1.0 1.0 0.00 0.00 0.00 85 1018.1
20260504230237 73 353 2.0 2.0 0.00 0.00 0.00 84 1017.9
20260504225735 73 318 0.0 1.0 0.00 0.00 0.00 85 1018.1
20260504225231 73 312 1.0 1.0 0.00 0.00 0.00 86 1017.9
20260504224729 73 287 0.0 1.0 0.00 0.00 0.00 85 1017.9
20260504224226 73 287 0.0 0.0 0.00 0.00 0.00 86 1017.8
20260504223722 74 294 0.0 0.0 0.00 0.00 0.00 85 1017.6
20260504223217 74 325 1.0 1.0 0.00 0.00 0.00 83 1017.6
20260504222715 74 220 2.0 2.0 0.00 0.00 0.00 83 1017.5
20260504222212 74 282 1.0 2.0 0.00 0.00 0.00 82 1017.4